Date String (YYYY-MM-DD hh:mm:ss) UTC,Instrument flags,absolute air pressure of the measurement (hPa),sample flow rate (lpm),inlet stack bypass flow (lpm),air temperature of the measurement (°C),ambient temperature measured by the external sensor (°C),aerosol sample conditioner tube jacket temperature (°C),OPC LED temperature (°C),internal box temperature (°C),relative humidity of the measurement (%),span deviation,mass concentration of particles derived from Lorenz-Mie calculation of OPC scattering (μg/m³),mass concentration of particles derived from Lorenz-Mie calculation of OPC scattering (μg/m³),mass concentration of particles derived from Lorenz-Mie calculation of OPC scattering (μg/m³)
DateTimeUTC,F1_M11,P_M11,Q1_M11,Q2_M11,T1_M11,T2_M11,T3_M11,T4_M11,T5_M11,U1_M11,ZSPAN_M11,X2_M11,X0_M11,X1_M11
2024-04-20 12:00:00,SystemResetWarning,0835.3,5.00,000.00,018.9,018.4,000.0,027.4,020.7,022.5,0000.0,0008.05,0009.63,0007.85
2024-04-20 12:01:00,SystemResetWarning,0835.3,5.00,000.00,018.9,018.4,000.0,027.4,020.7,022.5,0000.0,0008.01,0009.61,0007.82
2024-04-20 12:02:00,SystemResetWarning,0835.3,5.01,000.00,018.9,018.4,000.0,027.4,020.7,022.5,0000.0,0007.98,0009.56,0007.81
2024-04-20 12:03:00,SystemResetWarning,0835.4,5.01,000.00,018.9,018.4,000.0,027.4,020.7,022.5,0000.0,0007.96,0009.50,0007.80
2024-04-20 12:04:00,SystemResetWarning,0835.5,5.00,000.00,018.9,018.4,000.0,027.4,020.7,022.5,0000.0,0007.96,0009.48,0007.80
2024-04-20 12:05:00,SystemResetWarning,0835.3,5.00,000.00,018.9,018.4,000.0,027.4,020.7,022.5,0002.0,0007.98,0009.55,0007.80
2024-04-20 12:06:00,SystemResetWarning,0835.3,5.00,000.00,018.9,018.4,000.0,027.4,020.7,022.5,0001.8,0007.99,0009.59,0007.80
2024-04-20 12:07:00,SystemResetWarning,0835.5,4.99,000.00,018.9,018.4,000.0,027.4,020.7,022.5,0001.2,0008.00,0009.60,0007.82
2024-04-20 12:08:00,SystemResetWarning,0835.4,5.00,000.00,018.9,018.4,000.0,027.4,020.7,022.5,0001.1,0007.99,0009.56,0007.82
2024-04-20 12:09:00,SystemResetWarning,0835.4,4.99,000.00,018.9,018.4,000.0,027.4,020.7,022.5,0000.9,0008.00,0009.57,0007.84
2024-04-20 12:10:00,SystemResetWarning,0835.4,5.00,000.00,018.9,018.4,000.0,027.4,020.7,022.5,0000.5,0008.04,0009.60,0007.88
2024-04-20 12:11:00,SystemResetWarning,0835.4,5.01,000.00,018.9,018.4,000.0,027.4,020.7,022.5,0000.4,0008.10,0009.39,0007.94
2024-04-20 12:12:00,SystemResetWarning,0835.3,5.01,000.00,018.9,018.4,000.0,027.4,020.7,022.5,0000.4,0008.16,0009.38,0008.00
2024-04-20 12:13:00,SystemResetWarning,0835.4,5.00,000.00,018.9,018.4,000.0,027.4,020.7,022.5,0000.7,0008.20,0009.41,0008.05
2024-04-20 12:14:00,SystemResetWarning,0835.4,5.00,000.00,018.9,018.4,000.0,027.4,020.7,022.5,0000.3,0008.27,0009.49,0008.10
2024-04-20 12:15:00,SystemResetWarning,0835.4,5.00,000.00,018.9,018.4,000.0,027.4,020.7,022.5,0000.4,0008.31,0009.54,0008.13
2024-04-20 12:16:00,SystemResetWarning,0835.4,4.99,000.00,018.9,018.4,000.0,027.4,020.7,022.5,0000.5,0008.31,0009.47,0008.16
2024-04-20 12:17:00,SystemResetWarning,0835.5,5.00,000.00,018.9,018.4,000.0,027.4,020.7,022.5,0000.4,0008.34,0009.49,0008.19
2024-04-20 12:18:00,SystemResetWarning,0835.4,4.99,000.00,018.9,018.4,000.0,027.4,020.7,022.6,0000.3,0008.35,0009.49,0008.20
2024-04-20 12:19:00,SystemResetWarning,0835.5,5.00,000.00,018.9,018.4,000.0,027.4,020.7,022.6,0000.0,0008.34,0009.48,0008.21
2024-04-20 12:20:00,SystemResetWarning,0835.4,5.00,000.00,018.9,018.4,000.0,027.4,020.7,022.6,0000.5,0008.33,0009.45,0008.20
2024-04-20 12:21:00,SystemResetWarning,0835.5,5.00,000.00,018.9,018.4,000.0,027.4,020.7,022.6,0000.7,0008.33,0009.47,0008.20
2024-04-20 12:22:00,SystemResetWarning,0835.5,5.00,000.00,018.9,018.4,000.0,027.4,020.7,022.6,0000.7,0008.30,0009.44,0008.17
2024-04-20 12:23:00,SystemResetWarning,0835.5,5.01,000.00,018.9,018.4,000.0,027.4,020.7,022.6,0000.8,0008.26,0009.43,0008.14
2024-04-20 12:24:00,SystemResetWarning,0835.5,5.00,000.00,018.9,018.4,000.0,027.4,020.7,022.8,0000.8,0008.26,0009.46,0008.13
2024-04-20 12:25:00,SystemResetWarning,0835.5,5.00,000.00,018.9,018.4,000.0,027.4,020.7,023.8,0001.4,0008.25,0009.44,0008.10
2024-04-20 12:26:00,SystemResetWarning,0835.5,5.00,000.00,018.9,018.4,000.0,027.4,020.7,023.6,0001.3,0008.22,0009.40,0008.09
2024-04-20 12:27:00,SystemResetWarning,0835.5,5.00,000.00,018.9,018.4,000.0,027.4,020.7,023.1,0001.7,0008.21,0009.39,0008.07
2024-04-20 12:28:00,SystemResetWarning,0835.5,5.00,000.00,018.9,018.4,000.0,027.4,020.7,023.0,0001.9,0008.18,0009.34,0008.05
2024-04-20 12:29:00,SystemResetWarning,0835.5,5.00,000.00,018.9,018.4,000.0,027.4,020.7,023.0,0002.5,0008.18,0009.32,0008.04
2024-04-20 12:30:00,SystemResetWarning,0835.5,4.99,000.00,018.9,018.4,000.0,027.4,020.7,023.0,0002.6,0008.20,0009.33,0008.05
2024-04-20 12:31:00,SystemResetWarning,0835.5,4.99,000.00,018.9,018.4,000.0,027.4,020.7,023.0,0002.2,0008.21,0009.37,0008.05
2024-04-20 12:32:00,SystemResetWarning,0835.5,5.01,000.00,018.9,018.4,000.0,027.4,020.7,022.9,0002.1,0008.22,0009.35,0008.05
2024-04-20 12:33:00,SystemResetWarning,0835.5,5.02,000.00,018.9,018.4,000.0,027.4,020.7,023.0,0002.9,0008.23,0009.33,0008.07
2024-04-20 12:34:00,SystemResetWarning,0835.5,4.99,000.00,018.9,018.4,000.0,027.4,020.7,023.0,0003.0,0008.25,0009.31,0008.10
2024-04-20 12:35:00,SystemResetWarning,0835.6,5.00,000.00,018.9,018.4,000.0,027.4,020.7,023.0,0002.8,0008.26,0009.29,0008.11
2024-04-20 12:36:00,SystemResetWarning,0835.6,4.99,000.00,018.9,018.4,000.0,027.4,020.7,023.0,0002.6,0008.28,0009.30,0008.15
2024-04-20 12:37:00,SystemResetWarning,0835.5,4.99,000.00,018.9,018.4,000.0,027.4,020.7,023.0,0002.6,0008.33,0009.37,0008.17
2024-04-20 12:38:00,SystemResetWarning,0835.6,5.01,000.00,018.9,018.4,000.0,027.4,020.7,023.0,0002.2,0008.34,0009.37,0008.19
2024-04-20 12:39:00,SystemResetWarning,0835.5,5.01,000.00,018.9,018.3,000.0,027.4,020.7,023.0,0001.9,0008.37,0009.39,0008.23
2024-04-20 12:40:00,SystemResetWarning,0835.5,5.00,000.00,018.9,018.4,000.0,027.4,020.7,023.0,0001.5,0008.39,0009.42,0008.26
2024-04-20 12:41:00,SystemResetWarning,0835.5,4.99,000.00,018.9,018.4,000.0,027.4,020.7,023.0,0001.5,0008.42,0009.46,0008.29
2024-04-20 12:42:00,SystemResetWarning,0835.5,4.99,000.00,018.9,018.4,000.0,027.4,020.7,023.0,0001.5,0008.45,0009.48,0008.33
2024-04-20 12:43:00,SystemResetWarning,0835.5,4.99,000.00,018.9,018.4,000.0,027.4,020.7,023.1,0001.5,0008.50,0009.55,0008.37
2024-04-20 12:44:00,SystemResetWarning,0835.6,5.00,000.00,018.9,018.4,000.0,027.4,020.7,023.1,0000.1,0008.52,0009.58,0008.39
2024-04-20 12:45:00,SystemResetWarning,0835.6,5.01,000.00,018.9,018.4,000.0,027.4,020.7,023.1,-000.5,0008.54,0009.60,0008.40
2024-04-20 12:46:00,SystemResetWarning,0835.6,5.01,000.00,018.9,018.4,000.0,027.4,020.7,023.1,-000.6,0008.55,0009.64,0008.41
2024-04-20 12:47:00,SystemResetWarning,0835.5,5.00,000.00,018.9,018.4,000.0,027.4,020.7,023.1,-000.7,0008.54,0009.65,0008.39
2024-04-20 12:48:00,SystemResetWarning,0835.6,5.00,000.00,018.9,018.4,000.0,027.4,020.7,023.1,-000.7,0008.49,0009.56,0008.36
2024-04-20 12:49:00,SystemResetWarning,0835.5,4.99,000.00,018.9,018.4,000.0,027.4,020.7,023.1,-000.6,0008.45,0009.50,0008.33
2024-04-20 12:50:00,SystemResetWarning,0835.5,5.00,000.00,018.9,018.4,000.0,027.4,020.7,023.1,-000.6,0008.43,0009.49,0008.31
2024-04-20 12:51:00,SystemResetWarning,0835.5,5.00,000.00,018.9,018.4,000.0,027.4,020.7,023.1,-000.5,0008.41,0009.53,0008.27
2024-04-20 12:52:00,SystemResetWarning,0835.6,5.01,000.00,018.9,018.4,000.0,027.4,020.7,023.1,-000.4,0008.38,0009.52,0008.24
2024-04-20 12:53:00,SystemResetWarning,0835.6,5.01,000.00,018.9,018.4,000.0,027.4,020.7,023.1,-000.2,0008.37,0009.51,0008.22
2024-04-20 12:54:00,SystemResetWarning,0835.6,4.99,000.00,018.9,018.4,000.0,027.4,020.7,023.2,0000.1,0008.35,0009.47,0008.20
2024-04-20 12:55:00,SystemResetWarning,0835.6,5.00,000.00,018.9,018.4,000.0,027.4,020.7,023.2,0000.8,0008.33,0009.47,0008.17
2024-04-20 12:56:00,SystemResetWarning,0835.6,5.01,000.00,018.9,018.4,000.0,027.4,020.7,023.2,0001.2,0008.33,0009.49,0008.17
2024-04-20 12:57:00,SystemResetWarning,0835.6,5.01,000.00,018.9,018.4,000.0,027.4,020.7,023.2,0001.5,0008.33,0009.48,0008.17
2024-04-20 12:58:00,SystemResetWarning,0835.6,5.00,000.00,018.9,018.4,000.0,027.4,020.7,023.2,0001.7,0008.33,0009.48,0008.18
2024-04-20 12:59:00,SystemResetWarning,0835.6,5.00,000.00,018.9,018.4,000.0,027.4,020.7,023.2,0001.4,0008.36,0009.51,0008.22
